Starlink 33761

operational
NORAD ID: 63455 Int'l Des: 2025-069 Owner: SPXS Country: US Constellation: starlink
LEOCIRCULAR

About Starlink 33761

Description loading...

Live Position

Loading 3D Globe...

Upcoming Passes

Altitude History

Altitude vs Time

uPlot chart will show altitude changes over time

Two-Line Element Set

1 63455U 25069Y 25315.31739542 .00061446 00000-0 20693-2 0 9998
2 63455 53.1624 332.1297 0001549 82.1959 277.9217 15.30205127 35285
Epoch: Nov 11, 2025 • Age: 26 hours

Current Status

Altitude 479.7 km
Velocity 7.63 km/s
Sub-Earth Point 50.15°N, 105.2°W
Launch Date Apr 4, 2025
Age 0.6 years
Type internet

Technical Details

Classification Payload
Mass 575.00 kg
Dry Mass 530.00 kg
Total Mass 575.00 kg
Length 0.30 m
Diameter 4.10 m
Span 29.00 m
Shape Box + pan
Manufacturer SPXS
Bus Type Starlink V2MO
Phase Status In Orbit
Owner/State SPXS/US

Large Constellations

Loading constellations...